• In Deutschland
  • Länderverzeichnis
  • Für 7 Tage
  • Wassertemperatur
  • Satellitenkarten
  • Wetterkarte
  • Widgets
  • user-avatar
    Anmelden

    Stündliche Wetter Ilki

    Heute, 23 Oktober, Dienstag

    Zeit Temperatur Niederschläge Wind Luftdruck Luftfeuchtigkeit
    00:00 +4°C° 0 mm 3 m/S 751 mmHg 91%
    01:00 +3°C° 0 mm 3 m/S 751 mmHg 92%
    02:00 +3°C° 0 mm 4 m/S 750 mmHg 92%
    03:00 +3°C° 0 mm 4 m/S 750 mmHg 92%
    04:00 +3°C° 0 mm 4 m/S 749 mmHg 92%
    05:00 +3°C° 0 mm 5 m/S 748 mmHg 89%
    06:00 +3°C° 0 mm 5 m/S 747 mmHg 87%
    07:00 +3°C° 0 mm 6 m/S 746 mmHg 85%
    08:00 +3°C° 0.6 mm 7 m/S 745 mmHg 83%
    09:00 +4°C° 0.6 mm 8 m/S 743 mmHg 81%
    10:00 +3°C° 0.6 mm 9 m/S 742 mmHg 79%
    11:00 +3°C° 1.2 mm 9 m/S 740 mmHg 79%
    12:00 +3°C° 1.2 mm 10 m/S 739 mmHg 79%
    13:00 +3°C° 1.2 mm 10 m/S 737 mmHg 79%
    14:00 +5°C° 0.8 mm 10 m/S 736 mmHg 81%
    15:00 +6°C° 0.8 mm 9 m/S 735 mmHg 83%
    16:00 +6°C° 0.8 mm 9 m/S 734 mmHg 85%
    17:00 +6°C° 0.3 mm 8 m/S 733 mmHg 83%
    18:00 +6°C° 0.3 mm 7 m/S 732 mmHg 82%
    19:00 +7°C° 0.3 mm 6 m/S 732 mmHg 81%
    20:00 +5°C° 0.1 mm 6 m/S 731 mmHg 80%
    21:00 +5°C° 0.1 mm 6 m/S 731 mmHg 80%
    22:00 +5°C° 0.1 mm 6 m/S 730 mmHg 80%
    23:00 +5°C° 0.3 mm 6 m/S 730 mmHg 80%

    Morgen, 24 Oktober, Mittwoch

    Zeit Temperatur Niederschläge Wind Luftdruck Luftfeuchtigkeit
    00:00 +4°C° 0.3 mm 6 m/S 729 mmHg 79%
    01:00 +4°C° 0.3 mm 6 m/S 729 mmHg 79%
    02:00 +4°C° 0.6 mm 6 m/S 728 mmHg 79%
    03:00 +4°C° 0.6 mm 7 m/S 728 mmHg 79%
    04:00 +3°C° 0.6 mm 7 m/S 728 mmHg 79%
    05:00 +2°C° 0.7 mm 8 m/S 729 mmHg 76%
    06:00 +2°C° 0.7 mm 8 m/S 729 mmHg 72%
    07:00 +1°C° 0.7 mm 8 m/S 730 mmHg 68%
    08:00 +2°C° 0.2 mm 9 m/S 730 mmHg 68%
    09:00 +2°C° 0.2 mm 10 m/S 730 mmHg 69%
    10:00 +3°C° 0.2 mm 11 m/S 730 mmHg 69%
    11:00 +3°C° 1.1 mm 12 m/S 730 mmHg 71%
    12:00 +3°C° 1.1 mm 13 m/S 730 mmHg 72%
    13:00 +4°C° 1.1 mm 14 m/S 731 mmHg 74%
    14:00 +4°C° 0.9 mm 13 m/S 731 mmHg 74%
    15:00 +4°C° 0.9 mm 13 m/S 732 mmHg 74%
    16:00 +4°C° 0.9 mm 13 m/S 733 mmHg 75%
    17:00 +4°C° 0.4 mm 12 m/S 734 mmHg 74%
    18:00 +4°C° 0.4 mm 12 m/S 736 mmHg 74%
    19:00 +4°C° 0.4 mm 11 m/S 737 mmHg 74%
    20:00 +3°C° 0.1 mm 10 m/S 738 mmHg 74%
    21:00 +3°C° 0.1 mm 9 m/S 738 mmHg 74%
    22:00 +3°C° 0.1 mm 9 m/S 739 mmHg 74%
    23:00 +4°C° 0 mm 8 m/S 740 mmHg 75%

    übermorgen, 25 Oktober, Donnerstag

    Zeit Temperatur Niederschläge Wind Luftdruck Luftfeuchtigkeit
    00:00 +3°C° 0 mm 7 m/S 740 mmHg 77%
    01:00 +3°C° 0 mm 6 m/S 740 mmHg 78%
    02:00 +2°C° 0 mm 6 m/S 740 mmHg 79%
    03:00 +2°C° 0 mm 5 m/S 740 mmHg 81%
    04:00 +2°C° 0 mm 5 m/S 740 mmHg 82%
    05:00 +2°C° 0 mm 5 m/S 740 mmHg 81%
    06:00 +2°C° 0 mm 5 m/S 739 mmHg 80%
    07:00 +2°C° 0 mm 5 m/S 739 mmHg 79%
    08:00 +2°C° 0.7 mm 5 m/S 738 mmHg 81%
    09:00 +2°C° 0.7 mm 5 m/S 737 mmHg 83%
    10:00 +2°C° 0.7 mm 5 m/S 736 mmHg 85%
    11:00 +3°C° 0.9 mm 5 m/S 735 mmHg 84%
    12:00 +5°C° 0.9 mm 5 m/S 734 mmHg 83%
    13:00 +5°C° 0.9 mm 6 m/S 734 mmHg 82%
    14:00 +5°C° 0.3 mm 6 m/S 734 mmHg 82%
    15:00 +5°C° 0.3 mm 6 m/S 735 mmHg 81%
    16:00 +5°C° 0.3 mm 6 m/S 735 mmHg 81%
    17:00 +5°C° 0.1 mm 5 m/S 736 mmHg 84%
    18:00 +5°C° 0.1 mm 4 m/S 736 mmHg 87%
    19:00 +4°C° 0.1 mm 4 m/S 737 mmHg 90%
    20:00 +4°C° 0 mm 3 m/S 738 mmHg 90%
    21:00 +3°C° 0 mm 3 m/S 738 mmHg 91%
    22:00 +3°C° 0 mm 3 m/S 739 mmHg 92%
    23:00 +3°C° 0 mm 3 m/S 739 mmHg 92%

    26 Oktober, Freitag

    Zeit Temperatur Niederschläge Wind Luftdruck Luftfeuchtigkeit
    00:00 +3°C° 0 mm 3 m/S 739 mmHg 92%
    01:00 +3°C° 0 mm 4 m/S 739 mmHg 92%
    02:00 +3°C° 0 mm 4 m/S 740 mmHg 92%
    03:00 +3°C° 0 mm 4 m/S 740 mmHg 91%
    04:00 +3°C° 0 mm 4 m/S 740 mmHg 91%
    05:00 +3°C° 0 mm 4 m/S 740 mmHg 92%
    06:00 +3°C° 0 mm 4 m/S 741 mmHg 93%
    07:00 +3°C° 0 mm 4 m/S 741 mmHg 94%
    08:00 +4°C° 0 mm 4 m/S 741 mmHg 89%
    09:00 +6°C° 0 mm 4 m/S 741 mmHg 84%
    10:00 +7°C° 0 mm 4 m/S 742 mmHg 79%
    11:00 +7°C° 0.1 mm 4 m/S 742 mmHg 78%
    12:00 +8°C° 0.1 mm 4 m/S 742 mmHg 76%
    13:00 +8°C° 0.1 mm 4 m/S 742 mmHg 75%
    14:00 +9°C° 0.1 mm 3 m/S 741 mmHg 77%
    15:00 +8°C° 0.1 mm 3 m/S 741 mmHg 79%
    16:00 +7°C° 0.1 mm 3 m/S 741 mmHg 81%
    17:00 +7°C° 0 mm 3 m/S 741 mmHg 82%
    18:00 +5°C° 0 mm 3 m/S 741 mmHg 84%
    19:00 +5°C° 0 mm 3 m/S 741 mmHg 85%
    20:00 +5°C° 0.1 mm 4 m/S 741 mmHg 85%
    21:00 +5°C° 0.1 mm 4 m/S 741 mmHg 86%
    22:00 +5°C° 0.1 mm 5 m/S 740 mmHg 86%
    23:00 +6°C° 0.1 mm 5 m/S 740 mmHg 87%

    27 Oktober, Samstag

    Zeit Temperatur Niederschläge Wind Luftdruck Luftfeuchtigkeit
    00:00 +6°C° 0.1 mm 5 m/S 739 mmHg 88%
    01:00 +5°C° 0.1 mm 6 m/S 739 mmHg 88%
    02:00 +5°C° 0 mm 6 m/S 738 mmHg 89%
    03:00 +5°C° 0 mm 6 m/S 738 mmHg 90%
    04:00 +5°C° 0 mm 6 m/S 737 mmHg 91%
    05:00 +7°C° 0.1 mm 6 m/S 737 mmHg 91%
    06:00 +7°C° 0.1 mm 5 m/S 737 mmHg 91%
    07:00 +7°C° 0.1 mm 5 m/S 737 mmHg 91%
    08:00 +7°C° 0 mm 6 m/S 737 mmHg 87%
    09:00 +8°C° 0 mm 6 m/S 737 mmHg 83%
    10:00 +8°C° 0 mm 6 m/S 737 mmHg 79%
    11:00 +9°C° 0 mm 6 m/S 737 mmHg 74%
    12:00 +9°C° 0 mm 6 m/S 737 mmHg 69%
    13:00 +9°C° 0 mm 5 m/S 737 mmHg 64%
    14:00 +8°C° 0 mm 5 m/S 738 mmHg 64%
    15:00 +7°C° 0 mm 4 m/S 738 mmHg 65%
    16:00 +8°C° 0 mm 3 m/S 738 mmHg 66%
    17:00 +7°C° 0 mm 3 m/S 738 mmHg 67%
    18:00 +7°C° 0 mm 3 m/S 739 mmHg 68%
    19:00 +5°C° 0 mm 3 m/S 739 mmHg 69%
    20:00 +5°C° 0 mm 3 m/S 739 mmHg 71%
    21:00 +5°C° 0 mm 3 m/S 739 mmHg 72%
    22:00 +4°C° 0 mm 3 m/S 739 mmHg 74%
    23:00 +4°C° 0 mm 3 m/S 739 mmHg 74%

    28 Oktober, Sonntag

    Zeit Temperatur Niederschläge Wind Luftdruck Luftfeuchtigkeit
    00:00 +4°C° 0 mm 3 m/S 739 mmHg 75%
    01:00 +4°C° 0 mm 3 m/S 739 mmHg 76%
    02:00 +5°C° 0 mm 2 m/S 739 mmHg 76%
    03:00 +5°C° 0 mm 2 m/S 739 mmHg 77%
    04:00 +5°C° 0 mm 2 m/S 738 mmHg 78%
    05:00 +5°C° 0.1 mm 2 m/S 738 mmHg 78%
    06:00 +6°C° 0.1 mm 1 m/S 738 mmHg 78%
    07:00 +6°C° 0.1 mm 1 m/S 738 mmHg 78%
    08:00 +5°C° 0.1 mm 2 m/S 738 mmHg 76%
    09:00 +5°C° 0.1 mm 2 m/S 738 mmHg 74%
    10:00 +6°C° 0.1 mm 2 m/S 738 mmHg 72%
    11:00 +5°C° 0.2 mm 3 m/S 738 mmHg 72%
    12:00 +5°C° 0.2 mm 3 m/S 738 mmHg 72%
    13:00 +5°C° 0.2 mm 4 m/S 739 mmHg 72%
    14:00 +5°C° 0.1 mm 4 m/S 739 mmHg 73%
    15:00 +5°C° 0.1 mm 4 m/S 740 mmHg 74%
    16:00 +5°C° 0.1 mm 4 m/S 740 mmHg 74%
    17:00 +4°C° 0 mm 4 m/S 741 mmHg 75%
    18:00 +4°C° 0 mm 4 m/S 741 mmHg 76%
    19:00 +2°C° 0 mm 5 m/S 742 mmHg 77%
    20:00 +2°C° 0 mm 5 m/S 742 mmHg 77%
    21:00 +2°C° 0 mm 5 m/S 743 mmHg 78%
    22:00 +2°C° 0 mm 5 m/S 744 mmHg 78%
    23:00 +1°C° 0 mm 4 m/S 744 mmHg 79%
    Mehr zeigen